Showing default

POLAR SCOUT YUKON, 43808

Orbit data source: Space-Track

POLAR SCOUT YUKON, 43808 is an American payload satellite in SSO that was launched on Mon, 03 Dec 2018 UTC via an FALCON 9 launch vehicle from the Air Force Western Test Range (AFWTR). Payload-class satellites include a variety of spacecraft equipped with specific instruments for various scientific and technological missions. These include communications satellites like Starlink; space stations such as the ISS; scientific satellites like the Hubble; Earth observation satellites from companies like Planet Labs, Umbra, and HawkEye 360; GPS; miniature CubeSats for education and research; and military/defense satellites.

Loading next visibility...
Identifier
43808, 2018-099BC
Orbit
SSO
Country
Flag of USUS
Related business
Manufacturer
Millenium EI
Mission
Operational Defense Technology
Bus & Motor
CUBESAT 6U, Unknown motor
Mass
10 kg wet, 10 kg dry
Launch date (UTC)
2018-12-03 (8 years ago)
Launch vehicle
FALCON 9
Launch site
Air Force Western Test Range (AFWTR)
Object type
Payload
Rocket body
Debris
Shape & HBR
Box + 3 Pan, 0.3 m
Radar Cross Section
0.054 m², Medium (>0.1 m² and < 1m²)

Expand to show TLE details & history
Last TLE update: 2 days ago

TLE from 2 days ago
0 POLAR SCOUT YUKON
1 43808U 18099BC  26234.63804623  .00020574  00000-0  50728-3 0  9992
2 43808  97.4644 308.7146 0006192  93.2858 266.9096 15.40563477423730
Epoch: 2026-08-22T15:18Z
TLE epoch observation values (Epoch: 2026-08-22T15:18:47.194Z)
Latitude
-0.00007°
Longitude
108.07238°
Altitude
447.792 km
Speed
7.643 km/s
True Right ascension
20h 34m 51s
True Declination
0° 00' 00"
Sunlit
Object was in full shadow at epoch
Visualization orbit readout
Latitude
Unknown
Longitude
Unknown
Altitude
Unknown
Speed
Unknown
Apparent Right ascension
Unknown
Apparent Declination
Unknown
Sunlit
N/A
Visualization observer readout
Local Sidereal Time
20:03:21
Azimuth
Unknown
Elevation
Unknown
Doppler factor
Unknown
Orbital elements
Apogee altitude
445.609 km
Perigee altitude
437.164 km
Semi-major axis
6,819.523 km
Eccentricity
0.00062
Inclination
97.4644°
RAAN
308.7146°
Arg. of periapsis
93.2858°
True anomaly
266.83875°
Mean anomaly
266.9096°
Eccentric anomaly
266.87418°
Mean motion
3.854 °/min
Orbital period
93.41 mins
BSTAR
0.00050728
Loading maneuver chart data...
Computing Atmospheric mass density...
Loading historical data...
Loading historical data...
Loading historical data...
Loading historical data...
Loading historical data...
Loading historical data...
Loading historical data...

Documentation

Showing up to 5 results
|